TimeCST,TemperatureF,Dew PointF,Humidity,Sea Level PressureIn,VisibilityMPH,Wind Direction,Wind SpeedMPH,Gust SpeedMPH,PrecipitationIn,Events,Conditions,WindDirDegrees,DateUTC
12:53 AM,53.1,28.0,38,29.96,10.0,SW,15.0,-,N/A,,Partly Cloudy,220,2012-11-30 06:53:00
1:53 AM,48.9,28.9,46,29.94,10.0,SW,8.1,-,N/A,,Clear,230,2012-11-30 07:53:00
2:53 AM,48.0,28.0,46,29.94,10.0,WSW,9.2,-,N/A,,Clear,240,2012-11-30 08:53:00
3:53 AM,48.9,26.1,41,29.94,10.0,WSW,10.4,-,N/A,,Clear,240,2012-11-30 09:53:00
4:53 AM,46.0,25.0,44,29.94,10.0,West,11.5,-,N/A,,Clear,260,2012-11-30 10:53:00
5:53 AM,48.0,25.0,41,29.96,10.0,West,10.4,-,N/A,,Partly Cloudy,270,2012-11-30 11:53:00
6:53 AM,46.0,25.0,44,29.99,10.0,West,9.2,-,N/A,,Partly Cloudy,270,2012-11-30 12:53:00
7:53 AM,46.9,25.0,42,30.00,10.0,West,8.1,-,N/A,,Scattered Clouds,270,2012-11-30 13:53:00
8:53 AM,55.0,26.1,33,30.00,10.0,West,12.7,-,N/A,,Mostly Cloudy,260,2012-11-30 14:53:00
9:53 AM,63.0,27.0,26,30.00,10.0,West,17.3,-,N/A,,Scattered Clouds,270,2012-11-30 15:53:00
10:53 AM,70.0,28.9,22,29.99,10.0,West,17.3,-,N/A,,Scattered Clouds,280,2012-11-30 16:53:00
11:53 AM,73.0,28.9,20,29.96,10.0,West,24.2,29.9,N/A,,Scattered Clouds,280,2012-11-30 17:53:00
12:53 PM,77.0,28.0,17,29.91,10.0,West,21.9,27.6,N/A,,Mostly Cloudy,270,2012-11-30 18:53:00
1:53 PM,80.1,21.0,11,29.88,10.0,West,19.6,27.6,N/A,,Mostly Cloudy,270,2012-11-30 19:53:00
2:53 PM,81.0,19.9,10,29.87,10.0,West,19.6,28.8,N/A,,Mostly Cloudy,260,2012-11-30 20:53:00
3:53 PM,79.0,19.9,11,29.87,10.0,West,16.1,-,N/A,,Mostly Cloudy,270,2012-11-30 21:53:00
4:53 PM,77.0,23.0,13,29.87,10.0,WSW,12.7,-,N/A,,Mostly Cloudy,240,2012-11-30 22:53:00
5:53 PM,69.1,24.1,18,29.89,10.0,SW,10.4,-,N/A,,Mostly Cloudy,220,2012-11-30 23:53:00
6:53 PM,64.0,24.1,22,29.91,10.0,SSW,8.1,-,N/A,,Mostly Cloudy,210,2012-12-01 00:53:00
7:53 PM,62.1,25.0,24,29.91,10.0,SW,10.4,-,N/A,,Mostly Cloudy,230,2012-12-01 01:53:00
8:53 PM,61.0,25.0,25,29.91,10.0,SW,12.7,-,N/A,,Mostly Cloudy,230,2012-12-01 02:53:00
9:53 PM,59.0,25.0,27,29.90,10.0,SW,9.2,-,N/A,,Scattered Clouds,230,2012-12-01 03:53:00
10:53 PM,57.0,25.0,29,29.90,10.0,WSW,12.7,-,N/A,,Partly Cloudy,240,2012-12-01 04:53:00
11:53 PM,54.0,25.0,33,29.90,10.0,WSW,12.7,-,N/A,,Partly Cloudy,240,2012-12-01 05:53:00